Regional Weather Roundup
Issued by NWS

Home | Current Version | Previous Version | Text Only | Print | Product List | Glossary Off
Versions: 1 2 3 4 5 6 7 8 9 10 11 12 13 14 15 16 17 18 19 20 21 22 23 24 25 26 27 28 29 30 31 32 33 34 35 36 37 38 39 40 41 42 43 44 45 46 47 48 49 50

000
ASUS43 KMKX 281159
RWRWI

WISCONSIN REGIONAL WEATHER ROUNDUP
NATIONAL WEATHER SERVICE MILWAUKEE/SULLIVAN WI
600 AM CST SAT FEB 28 2015

NOTE: "FAIR" INDICATES FEW OR NO CLOUDS BELOW 12,000 FEET WITH NO
SIGNIFICANT WEATHER AND/OR OBSTRUCTIONS TO VISIBILITY.

WIZ001-002-006>008-014>016-023>028-281300-
NORTHWEST WISCONSIN

CITY           SKY/WX    TMP DP  RH WIND       PRES   REMARKS
SUPERIOR ARPT  PTCLDY    -1  -5  83 W5        30.49S WCI -11
ASHLAND        CLEAR     -1  -5  82 S6        30.50S WCI -13
6HR MIN TEMP:  -1; 6HR MAX TEMP:   7;

HAYWARD        PTCLDY   -14 -19  79 CALM      30.48R
6HR MIN TEMP: -14; 6HR MAX TEMP:  -5;

SIREN          PTCLDY    -7 -12  81 CALM      30.50S
CUMBERLAND     MOCLDY    -8 -11  84 S5        30.49R WCI -19
RICE LAKE      MOCLDY    -8 -13  81 CALM      30.53R
CHETEK         MOCLDY   -12 -16  82 CALM      30.53R
LADYSMITH      PTCLDY    -8 -13  80 CALM      30.52R
EAU CLAIRE     NOT AVBL
MENOMONIE      MOCLDY    -3  -7  81 SE5       30.56R WCI -13
NEW RICHMOND   CLEAR     -4  -8  83 S7        30.52R WCI -18
OSCEOLA        PTCLDY    -3  -6  84 SE3       30.55S
$$

WIZ003>005-009-010-017-018-281300-
NORTH CENTRAL WISCONSIN

CITY           SKY/WX    TMP DP  RH WIND       PRES   REMARKS
MANITOWISH WTR PTCLDY   -18 -24  73 SW3       30.44R
ARBOR VITAE    FAIR     -11 -17  75 CALM      30.45R
WOODRUFF       FAIR     -11 -17  75 CALM      30.45R
RHINELANDER    PTCLDY   -12 -16  82 CALM      30.46S
6HR MIN TEMP: -15; 6HR MAX TEMP:  -2;

EAGLE RIVER    PTCLDY   -11 -16  76 CALM      30.45R
LAND O LAKES   PTCLDY   -21 -27  72 SW3       30.44S
PHILLIPS       PTCLDY   -13 -17  79 CALM      30.47R
TOMAHAWK       PTCLDY   -19 -25  73 CALM      30.49R
MEDFORD        MOCLDY    -7 -10  84 SW5       30.49R WCI -18
MERRILL        PTCLDY   -19 -24  75 CALM      30.51R
$$

WIZ029-030-035-036-043>047-281300-
CENTRAL WISCONSIN

CITY           SKY/WX    TMP DP  RH WIND       PRES   REMARKS
WAUSAU         PTCLDY    -7  -9  91 S3        30.53R
6HR MIN TEMP:  -7; 6HR MAX TEMP:   3;

MOSINEE        CLEAR     -9 -11  92 S5        30.54R WCI -21
MARSHFIELD     PTCLDY    -7 -12  79 SW7       30.54R WCI -21
6HR MIN TEMP:  -9; 6HR MAX TEMP:   0;

STEVENS POINT  PTCLDY    -8 -11  85 CALM      30.57R
WAUPACA        PTCLDY    -3 -10  74 CALM      30.61R
WAUTOMA        NOT AVBL
WISC RAPIDS    PTCLDY   -10 -16  74 SW3       30.60R
6HR MIN TEMP: -11; 6HR MAX TEMP:   2;

CAMP DOUGLAS   NOT AVBL
$$

WIZ011>013-019>022-031-037>040-048>050-281300-
NORTHEAST WISCONSIN

CITY           SKY/WX    TMP DP  RH WIND       PRES   REMARKS
ANTIGO         PTCLDY   -13 -16  86 CALM      30.49R
SHAWANO        PTCLDY     0  -7  73 CALM      30.59S
OCONTO         CLEAR     -6 -10  82 CALM      30.61R
STURGEON BAY   CLEAR      1  -8  66 SW8       30.61R WCI -12
6HR MIN TEMP:   1; 6HR MAX TEMP:   7;

GREEN BAY      CLEAR      1  -6  72 SW7       30.62R WCI -12
6HR MIN TEMP:   1; 6HR MAX TEMP:   8;

MANITOWOC      NOT AVBL
APPLETON       CLEAR      0  -9  65 SW8       30.60R WCI -15
CLINTONVILLE   PTCLDY    -4  -9  77 SW6       30.59R WCI -16
OSHKOSH        PTCLDY    -2  -9  72 SW5       30.62R WCI -12
6HR MIN TEMP:  -5; 6HR MAX TEMP:   5;

$$

WIZ032>034-041-042-053>061-281300-
SOUTHWEST WISCONSIN

CITY           SKY/WX    TMP DP  RH WIND       PRES   REMARKS
LA CROSSE      PTCLDY    -8 -13  78 S5        30.64R WCI -19
6HR MIN TEMP:  -8; 6HR MAX TEMP:   1;

SPARTA         PTCLDY   -17 -22  76 CALM      30.62R
VIROQUA        PTCLDY    -6 -10  84 S5        30.55R WCI -17
BOSCOBEL       PTCLDY   -19 -25  73 CALM      30.67R
6HR MIN TEMP: -19; 6HR MAX TEMP:  -7;

PRAIRIE DU CHI PTCLDY   -17 -23  71 CALM      30.66R
PLATTEVILLE    MOCLDY    -7 -11  83 SE6       30.61R WCI -20
$$

WIZ056-057-062-063-064-067-068-281300-
SOUTH CENTRAL WISCONSIN

CITY           SKY/WX    TMP DP  RH WIND       PRES   REMARKS
REEDSBURG      PTCLDY    -6 -10  82 CALM      30.61R
BARABOO/DELLS  PTCLDY    -6 -10  82 CALM      30.60R
LONE ROCK      NOT AVBL
MINERAL POINT  MOCLDY    -4  -8  84 S5        30.59R WCI -15
MADISON        PTCLDY    -8 -14  74 CALM      30.63R
6HR MIN TEMP:  -9; 6HR MAX TEMP:   2;

MIDDLETON      PTCLDY   -10 -17  74 CALM      30.62S
WATERTOWN      PTCLDY    -8 -12  80 CALM      30.64R
MONROE         MOCLDY    -4  -8  84 S7        30.60R WCI -18
JANESVILLE     CLEAR     -8 -15  71 CALM      30.66R
$$

WIZ051-052-058>065-066-070>072-281300-
SOUTHEAST WISCONSIN

CITY           SKY/WX    TMP DP  RH WIND       PRES   REMARKS
MILWAUKEE      PTCLDY    -2 -11  65 SW5       30.67R WCI -12
6HR MIN TEMP:  -3; 6HR MAX TEMP:   4;

WAUKESHA       CLEAR     -4  -9  77 W5        30.65R WCI -15
MILWAUKEE/TIMM CLEAR      0  -8  71 W3        30.66R
RACINE         PTCLDY    -4 -10  75 SW5       30.69R WCI -15
6HR MIN TEMP:  -5; 6HR MAX TEMP:   3;

BURLINGTON     MOCLDY   -15 -19  79 S3        30.66R
KENOSHA        PTCLDY   -11 -15  82 W5        30.67R WCI -23
6HR MIN TEMP: -12; 6HR MAX TEMP:   1;

FOND DU LAC    PTCLDY    -5 -10  79 S5        30.63R WCI -16
6HR MIN TEMP:  -5; 6HR MAX TEMP:   4;

SHEBOYGAN      CLEAR      0  -8  69 W6        30.63S WCI -12
6HR MIN TEMP:  -4; 6HR MAX TEMP:   4;

WEST BEND      CLEAR      0  -8  71 CALM      30.63R
JUNEAU         PTCLDY    -4  -9  77 S3        30.64R
$$

LSZ147-162-281300-
LAKE SUPERIOR

STATION/POSITION TIME  TEMP    WIND        PRES    WAVE
                       AIR SEA DIR/SP/G            HT/PER
                 (UTC) (F)     (DEG/KT/KT) (MB)    (FT/S)
DEVILS ISLAND    1100    7     230/ 14/ 17 1033.8R
PORT WING        1100    4     190/  9/ 12 1032.2
SAXON HARBOR     1100    4     190/  6/ 10 1032.8
$$

LMZ867-665-643>646-281300-
LAKE MICHIGAN

STATION/POSITION TIME  TEMP    WIND        PRES    WAVE
                       AIR SEA DIR/SP/G            HT/PER
                 (UTC) (F)     (DEG/KT/KT) (MB)    (FT/S)
NORTHPORT PIER   1100    5     210/  3/  8 1035.6R
SISTER BAY       1143    4     230/  7/  9   N/A
KEWAUNEE LAKESHO 1100    4     280/  5/  7 1035.4R
SHEBOYGAN LAKESH 1100    4     250/  4/  6 1039.5R
PORT WASHINGTON  1100    2     290/  4/  6 1038.3S
MILWAUKEE LAKESH 1100    4     200/  5/  7   N/A
KENOSHA   LAKESH 1100   -1     270/  6/  8 1037.9S
$$

TC  - TEMPERATURE IN CELSIUS
VSB - VISIBILITY IN STATUTE MILES
WCI - WIND CHILL INDEX
HX  - HEAT INDEX



USA.gov is the U.S. government's official web portal to all federal, state and local government web resources and services.